Погода в Моллакенте

Россия / Республика Дагестан     41°55′20″N   48°22′58″E
темп.,
°C
ветер,
м/с
пор.,
м/с
влажн.,
%
обл.,
%
осадки,
мм/ч
давл.,
гПа
погр.,
м
25 июня, сб
сб2500:00+22ссв117999 0.0 100860
03:00+22ссз118056 0.0 1008100
06:00+22с227980 0.0 1009128
09:00+22с558240 0.0 1008208
12:00+22с56860 0.0 1008280
15:00+22с56844 0.0 1007301
18:00+23с4582100 0.0 1007161
21:00+23ссз4577100 0.0 1009148
26 июня, вс
вс2600:00+23сз3474100 0.0 1007104
03:00+23сз457769 0.0 1008155
06:00+23сз3575100 0.0 1007151
09:00+22с677942 0.0 1007210
12:00+22с81080100 0.1 1005260
15:00+23ссз71079100 0.1 1005222
18:00+23ссз61175100 0.0 1004173
21:00+24сз61069100 0.0 1005156
27 июня, пн
пн2700:00+24зсз577372 0.0 100696
03:00+23ссз711810 0.0 1005219
06:00+23сз714750 0.0 1006328
09:00+23ссз915780 0.0 1007307
12:00+24ссз1319740 0.0 1007397
15:00+23ссз1320770 0.0 1006356
18:00+23ссз1421790 0.0 1006412
21:00+24ссз1521710 0.0 1006342
28 июня, вт
вт2800:00+24ссз1522690 0.0 1005471
03:00+24ссз1622630 0.0 1005526
06:00+24ссз1520630 0.0 1006519
09:00+23ссз1318730 0.0 1006595
12:00+23ссз1118750 0.0 1006424
15:00+23ссз1218760 0.0 1006481
18:00+23ссз1116780 0.0 1008497
21:00+23сз1015740 0.0 1009399
29 июня, ср
ср2900:00+23сз711750 0.0 1010258
03:00+23сз7127039 0.0 1009245
06:00+23сз58700 0.0 1010173
09:00+23ссз711720 0.0 1011237
12:00+23с710750 0.0 1011229
15:00+23с56830 0.0 1011146
18:00+23ссз66870 0.0 1012238
21:00+22ссз78880 0.0 1013448